This demonstration page uses our WeatherBlox Daily Observations layout. Learn more.

36.17497, -115.13722

Hourly Observations for May 13, 2015

Temp ( °F °C ) Dew Point ( °F °C ) Humidity (%) Winds ( mph kmh ) Pressure ( in mb ) Visibility ( mi km ) Precip ( " mm )
12:53 am 00:53 Clear 71 21.7 25 -3.9 18 18 SW 8 13 29.75 1008 10 16.0934 0 0
1:53 am 01:53 Clear 69 20.6 28 -2.2 22 22 SSW 8 13 29.76 1008 10 16.0934 0 0
2:53 am 02:53 Clear 69 20.6 27 -2.8 21 21 S 14 22 29.76 1008 10 16.0934 0 0
3:53 am 03:53 Clear 66 18.9 30 -1.1 26 26 ESE 9 15 29.78 1009 10 16.0934 0 0
4:53 am 04:53 Clear 65 18.3 29 -1.7 26 26 SE 10 17 29.79 1009 10 16.0934 0 0
5:53 am 05:53 Sunny 66 18.9 25 -3.9 21 21 S 13 20 29.81 1010 10 16.0934 0 0
6:53 am 06:53 Sunny 67 19.4 22 -5.6 18 18 S 15 24 29.83 1010 10 16.0934 0 0
7:53 am 07:53 Sunny 69 20.6 18 -7.8 14 14 S 14 22 29.85 1011 10 16.0934 0 0
8:53 am 08:53 Sunny 71 21.7 16 -8.9 12 12 SSE 13 20 29.85 1011 10 16.0934 0 0
9:53 am 09:53 Sunny 73 22.8 23 -5 15 15 S 14 22 29.86 1011 10 16.0934 0 0
10:53 am 10:53 Sunny 75 23.9 25 -3.9 15 15 SSE 3 6 29.84 1011 10 16.0934 0 0
11:53 am 11:53 Sunny 79 26.1 22 -5.6 12 12 SSW 15 24 29.82 1010 10 16.0934 0 0
12:53 pm 12:53 Sunny 82 27.8 8 -13.3 6 6 SSW 24 39 29.78 1009 10 16.0934 0 0
1:53 pm 13:53 Sunny 83 28.3 9 -12.8 6 6 SSW 16 26 29.76 1008 10 16.0934 0 0
2:53 pm 14:53 Sunny 83 28.3 9 -12.8 6 6 S 21 33 29.74 1007 10 16.0934 0 0
3:53 pm 15:53 Sunny 83 28.3 4 -15.6 5 5 S 25 41 29.72 1006 10 16.0934 0 0
4:53 pm 16:53 Sunny 81 27.2 4 -15.6 5 5 SW 13 20 29.73 1007 10 16.0934 0 0
5:53 pm 17:53 Sunny 80 26.7 4 -15.6 5 5 WSW 13 20 29.73 1007 10 16.0934 0 0
6:53 pm 18:53 Sunny 79 26.1 5 -15 6 6 SSW 17 28 29.72 1006 10 16.0934 0 0
7:53 pm 19:53 Clear 78 25.6 4 -15.6 5 5 SSW 15 24 29.72 1006 10 16.0934 0 0
8:53 pm 20:53 Clear 77 25 2 -16.7 5 5 S 13 20 29.73 1007 10 16.0934 0 0
9:53 pm 21:53 Clear 76 24.4 1 -17.2 5 5 SSW 14 22 29.74 1007 10 16.0934 0 0
10:53 pm 22:53 Clear 75 23.9 -2 -18.9 5 5 S 13 20 29.73 1007 10 16.0934 0 0
11:53 pm 23:53 Clear 73 22.8 -1 -18.3 5 5 SSW 7 11 29.72 1007 10 16.0934 0 0

Powered by AerisWeather